Overview Statistics Trail Chart Weather Telemetry Raw packets
 

This is the latest recevied weather packets stored in our database for station/object WL7CLI. If no packets are shown the sender has not sent any weather packets the latest 10 day(s).

<< 17 18 19 20 21 22 23 >>
Time Temp. Humidity Pressure Rain* Wind** Luminosity Snow
1788539124 31.67° C 62% 1010.9 hPa 0 mm - - -
1788537924 31.11° C 63% 1011 hPa 0 mm - - -
1788537490 31.11° C 64% 1012.9 hPa 0 mm - - -
1788537030 31.11° C 64% 1011 hPa 0 mm - - -
1788536746 31.11° C 64% 1011 hPa 0 mm - - -
1788535830 30° C 65% 1011.1 hPa 0 mm - - -
1788535691 30.56° C 66% 1013.1 hPa 0 mm - - -
1788535523 30° C 67% 1011.1 hPa 0 mm - - -
1788534630 29.44° C 68% 1011 hPa 0 mm - - -
1788534323 29.44° C 68% 1011.1 hPa 0 mm - - -
1788533891 29.44° C 68% 1012.9 hPa 0 mm - - -
1788533431 29.44° C 68% 1011.2 hPa 0 mm - - -
1788533123 29.44° C 67% 1011.2 hPa 0 mm - - -
1788532229 28.89° C 68% 1011.2 hPa 0 mm - - -
1788532090 28.89° C 68% 1012.9 hPa 0 mm - - -
1788531923 28.89° C 70% 1011.2 hPa 0 mm - - -
1788531029 27.78° C 72% 1011.4 hPa 0 mm - - -
1788530722 27.78° C 74% 1011.6 hPa 0 mm - - -
1788530290 27.78° C 73% 1013.5 hPa 0 mm - - -
1788529959 27.22° C 75% 1011.8 hPa 0 mm - - -
1788529830 27.22° C 75% 1011.8 hPa 0 mm - - -
1788529523 26.67° C 74% 1011.9 hPa 0 mm - - -
1788528902 26.67° C 75% 1012 hPa 0 mm - - -
1788528630 26.67° C 75% 1012.1 hPa 0 mm - - -
1788528490 26.67° C 76% 1013.7 hPa 0 mm - - -

* Rain latest hour (hover to see other rain measurements)
** Current wind speed in m/s (hover to see current wind gust speed)